Moses Lake, WA

11:30 PM PDT on March 27, 2017 (GMT -0700)
Grant County International

Weather History for KMWH - September, 2012

Change the Weather History Date:

Tuesday, September 4, 2012

  Actual Average Record
Temperature  
Mean Temperature 66 °F 67 °F  
Max Temperature 83 °F 82 °F 98 °F (2006)
Min Temperature 48 °F 51 °F 37 °F (1996)
Degree Days  
Heating Degree Days 0 2  
Month to date heating degree days 1 6  
Since 1 July heating degree days 13 26  
Cooling Degree Days 1 3  
Month to date cooling degree days 4 14  
Year to date cooling degree days 685 584  
Growing Degree Days 15 (Base 50)    
Moisture  
Dew Point 39 °F    
Average Humidity 43    
Maximum Humidity 66    
Minimum Humidity 20    
Precipitation  
Precipitation 0.00 in 0.01 in 0.43 in (2000)
Month to date precipitation 0.00 0.05  
Year to date precipitation 5.58 5.48  
Sea Level Pressure  
Sea Level Pressure 30.10 in    
Wind  
Wind Speed 3 mph (WSW)    
Max Wind Speed 14 mph    
Max Gust Speed 21 mph    
Visibility 10 miles    
Events      
T = Trace of Precipitation, MM = Missing Value Source: NWS Daily Summary

Daily Weather History Graph

Daily Weather History Graph

Search for Another Location

Airport or City:

Trip Planner

Search our weather history database for the weather conditions in past years. The results will help you decide how hot, cold, wet, or windy it might be!

Date:

Astronomy

Sep. 04, 2012 Rise Set
Actual Time 6:21 AM PDT 7:30 PM PDT
Civil Twilight 5:49 AM PDT 8:01 PM PDT
Nautical Twilight 5:11 AM PDT 8:39 PM PDT
Astronomical Twilight 4:31 AM PDT 9:18 PM PDT
Moon 9:03 PM PDT (9/4) 10:54 AM PDT (9/4)
Length of Visible Light 14h 11m
Length of Day
13h 09m
Waning Gibbous, 83% of the Moon is Illuminated
Sep 4
Waning Gibbous
Sep 8
Last Quarter
Sep 15
New
Sep 22
First Quarter
Sep 29
Full

Hourly Weather History & Observations

Time (PDT) Temp. Dew Point Humidity Pressure Visibility Wind Dir Wind Speed Gust Speed Precip Events Conditions
12:52 AM 57.0 °F 37.9 °F 49% 30.05 in 10.0 mi North 6.9 mph - N/A   Clear
1:52 AM 60.1 °F 39.9 °F 47% 30.06 in 10.0 mi Calm Calm - N/A   Clear
2:52 AM 57.9 °F 37.9 °F 47% 30.08 in 10.0 mi Calm Calm - N/A   Clear
3:52 AM 54.0 °F 37.9 °F 55% 30.09 in 10.0 mi Calm Calm - N/A   Clear
4:52 AM 53.1 °F 37.9 °F 57% 30.11 in 10.0 mi Calm Calm - N/A   Clear
5:52 AM 48.9 °F 37.0 °F 64% 30.13 in 10.0 mi Calm Calm - N/A   Clear
6:52 AM 50.0 °F 37.0 °F 61% 30.14 in 10.0 mi Calm Calm - N/A   Clear
7:52 AM 57.0 °F 37.9 °F 49% 30.16 in 10.0 mi Calm Calm - N/A   Clear
8:52 AM 64.0 °F 37.9 °F 38% 30.16 in 10.0 mi Calm Calm - N/A   Clear
9:52 AM 70.0 °F 39.0 °F 32% 30.17 in 10.0 mi WNW 3.5 mph - N/A   Clear
10:52 AM 75.9 °F 37.9 °F 25% 30.16 in 10.0 mi Variable 3.5 mph - N/A   Clear
11:52 AM 78.1 °F 37.9 °F 24% 30.15 in 10.0 mi SW 5.8 mph - N/A   Clear
12:52 PM 80.6 °F 37.4 °F 21% 30.15 in 10.0 mi WSW 6.9 mph - N/A   Clear
1:52 PM 82.0 °F 37.9 °F 21% 30.13 in 10.0 mi SSW 10.4 mph - N/A   Clear
2:52 PM 82.9 °F 37.0 °F 19% 30.11 in 10.0 mi SSW 8.1 mph - N/A   Clear
3:52 PM 82.9 °F 37.9 °F 20% 30.10 in 10.0 mi SW 6.9 mph - N/A   Clear
4:52 PM 81.0 °F 37.9 °F 21% 30.08 in 10.0 mi Variable 3.5 mph - N/A   Clear
5:52 PM 81.0 °F 39.0 °F 22% 30.07 in 10.0 mi SSW 6.9 mph - N/A   Clear
6:52 PM 80.1 °F 37.9 °F 22% 30.06 in 10.0 mi Calm Calm - N/A   Clear
7:52 PM 75.9 °F 42.1 °F 30% 30.05 in 10.0 mi SSW 3.5 mph - N/A   Clear
8:52 PM 73.0 °F 42.1 °F 33% 30.06 in 10.0 mi Calm Calm - N/A   Clear
9:52 PM 68.0 °F 41.0 °F 37% 30.05 in 10.0 mi Calm Calm - N/A   Clear
10:52 PM 63.0 °F 41.0 °F 45% 30.05 in 10.0 mi North 3.5 mph - N/A   Clear
11:52 PM 60.1 °F 42.1 °F 51% 30.06 in 10.0 mi NNE 4.6 mph - N/A   Clear